SCP
1 2 2 2 4 4 3 2 2 2 2 2 2 2 2 2 2 2 2 2 2 2 2 2 1 1 1 1 1 1 1 1 1 1 0 0 0 0 0 0 1 1 1
2 2 2 2 3 4 3 2 2 2 2 2 2 2 2 2 1 1 1 2 2 2 2 2 2 2 1 1 1 1 1 1 1 1 0 0 0 0 0 0 0 1 1
2 2 2 2 2 2 2 1 1 1 1 1 1 2 2 1 1 1 1 1 2 2 2 2 2 2 2 2 2 1 1 1 1 0 0 0 0 0 0 0 0 0 1
2 2 2 2 2 1 1 1 1 1 1 1 1 2 2 1 1 1 1 1 2 2 2 3 3 3 3 2 2 1 1 1 0 0 0 0 0 0 0 0 0 0 0
2 2 3 3 2 2 2 1 1 1 1 1 1 2 2 1 1 1 1 1 1 2 2 3 3 3 3 2 2 1 0 0 0 0 0 0 0 0 0 0 0 0 0
3 3 3 3 3 2 2 1 1 1 1 1 1 2 1 1 1 1 1 1 1 2 2 3 3 3 3 2 1 1 0 0 0 0 0 0 0 0 0 0 0 0 0
3 3 3 3 2 2 1 1 1 1 1 1 1 1 1 1 1 1 1 1 1 1 2 2 2 3 3 2 1 1 1 0 0 0 0 0 0 0 0 0 0 0 0
3 3 3 2 2 1 1 1 1 1 0 0 1 1 0 1 1 1 1 1 1 1 1 1 2 2 2 2 2 1 1 0 0 0 0 0 0 0 0 0 0 0 0
3 3 2 2 1 1 1 1 1 1 0 0 1 1 0 0 1 1 1 1 1 1 1 1 1 1 2 2 2 2 1 1 0 0 0 0 0 0 0 0 0 0 0
2 2 1 1 1 1 1 1 1 1 1 1 1 1 1 1 1 0 0 0 0 0 0 0 1 1 1 1 1 1 1 1 0 0 0 0 0 0 0 0 0 0 0
1 1 1 0 0 0 1 1 1 1 1 1 1 1 1 0 0 0 0 0 0 0 0 0 0 0 1 1 1 1 1 0 0 0 0 0 0 0 0 0 0 0 0
1 1 0 0 0 0 0 0 1 1 1 1 1 0 0 0 0 0 0 0 0 0 0 0 0 0 0 0 0 1 1 0 0 0 0 0 0 0 0 0 0 0 0
1 1 0 0 0 0 0 0 0 1 1 0 0 0 0 0 0 0 0 0 0 0 0 0 0 0 0 0 0 0 0 0 0 0 0 0 0 0 0 0 0 0 0
1 0 0 0 0 0 0 0 0 0 0 0 0 0 0 0 0 0 0 0 0 0 0 0 0 0 0 0 0 0 0 0 0 0 0 0 0 0 0 0 0 0 0
0 0 0 0 0 0 0 0 0 0 0 0 0 0 0 0 0 0 0 0 0 0 0 0 0 0 0 0 0 0 0 0 0 0 0 0 0 0 0 0 0 0 0
0 0 0 0 0 0 0 0 0 0 0 0 0 0 0 0 0 0 0 0 0 0 0 0 0 0 0 0 0 0 0 0 0 0 0 0 0 0 0 0 0 0 0
0 0 0 0 0 0 0 0 0 0 0 0 0 0 0 0 0 0 0 0 0 0 0 0 0 0 0 0 0 0 0 0 0 0 0 0 0 0 0 0 0 0 0
0 0 0 0 0 0 0 0 0 0 0 0 0 0 0 0 0 0 0 0 0 0 0 0 0 0 0 0 0 0 0 0 0 0 0 0 0 0 0 0 0 0 0
0 0 0 0 0 0 0 0 0 0 0 0 0 0 0 0 0 0 0 0 0 0 0 0 0 0 0 0 0 0 0 0 0 0 0 0 0 0 0 0 0 0 0
0 0 0 0 0 0 0 0 0 0 0 0 0 0 0 0 0 0 0 0 0 0 0 0 0 0 0 0 0 0 0 0 0 0 0 0 0 0 0 0 0 0 0
0 0 0 0 0 0 0 0 0 0 0 0 0 0 0 0 0 0 0 0 0 0 0 0 0 0 0 0 0 0 0 0 0 0 0 0 0 0 0 0 0 0 0
0 0 0 0 0 0 0 0 0 0 0 0 0 0 0 0 0 0 0 0 0 0 0 0 0 0 0 0 0 0 0 0 0 0 0 0 0 0 0 0 0 0 0
0 0 0 0 0 0 0 0 0 0 0 0 0 0 0 0 0 0 0 0 0 0 0 0 0 0 0 0 0 0 0 0 0 0 0 0 0 0 0 0 0 0 0
0 0 0 0 0 0 0 0 0 0 0 0 0 0 0 0 0 0 0 0 0 0 0 0 0 0 0 0 0 0 0 0 0 0 0 0 0 0 0 0 0 0 0
0 0 0 0 0 0 0 0 0 0 0 0 0 0 0 0 0 0 0 0 0 0 0 0 0 0 0 0 0 0 0 0 0 0 0 0 0 0 0 0 0 0 0
0 0 0 0 0 0 0 0 0 0 0 0 0 0 0 0 0 0 0 0 0 -0 -0 -0 -0 0 0 0 0 0 0 0 0 0 0 0 0 0 0 0 0 0 0
Wind_Speed
7 6 7 7 7 6 5 5 5 3 3 2 2 2 2 2 2 3 4 4 3 3 3 2 2 2 1 1 1 0 0 0 1 1 1 2 2 3 2 1 1 1 1
8 7 6 6 6 6 4 4 5 4 3 2 1 2 2 2 2 2 3 4 4 3 3 2 2 2 1 2 1 1 0 0 1 2 1 1 2 3 3 2 2 2 1
10 9 7 6 6 5 3 5 5 5 4 3 3 3 3 2 3 3 3 4 4 4 3 3 2 2 1 1 2 0 1 0 0 1 2 2 2 0 2 3 3 3 2
9 8 8 6 6 5 4 5 5 5 5 4 4 4 3 2 1 1 2 3 4 4 4 3 3 2 2 2 2 1 0 1 1 0 0 1 2 2 0 1 2 2 2
10 9 8 7 6 6 5 5 6 6 5 5 5 5 4 2 2 2 3 3 3 4 4 3 3 3 2 3 3 2 1 0 1 1 0 0 0 1 2 1 0 1 2
10 9 8 7 6 5 5 5 6 5 4 5 5 5 4 4 4 3 3 3 2 3 4 3 3 3 2 2 2 2 2 1 0 0 1 1 1 2 2 2 1 1 1
10 10 10 8 6 6 5 5 5 4 4 5 5 4 4 4 4 2 2 2 2 2 3 3 3 2 2 2 2 2 2 1 1 0 0 0 1 2 2 3 2 1 0
9 10 9 9 7 6 5 5 5 4 3 4 4 4 3 3 2 2 2 2 1 1 2 3 3 3 3 3 2 2 2 2 1 1 1 0 1 1 2 2 3 2 0
9 9 9 8 7 7 6 5 5 4 4 4 3 4 3 3 3 2 2 1 1 2 3 3 3 3 3 3 2 2 2 2 2 1 1 1 0 0 1 2 3 3 3
9 9 8 8 6 6 5 5 5 4 3 3 3 3 3 3 3 3 3 3 3 3 4 4 4 4 4 3 3 2 2 2 2 1 2 1 1 1 1 1 1 1 2
10 9 8 8 7 6 5 5 4 4 4 3 3 4 3 3 3 3 3 3 3 4 4 4 4 4 4 4 3 3 3 3 3 2 2 2 1 1 1 1 1 1 2
9 9 9 8 7 6 5 4 4 4 3 3 3 3 3 4 4 4 4 4 4 4 4 4 4 4 4 4 4 3 4 3 3 3 3 2 2 2 1 2 2 1 1
10 9 8 8 7 6 5 4 4 3 3 3 3 3 3 3 3 3 3 4 4 4 4 5 5 5 4 4 4 3 3 3 3 2 2 2 2 2 1 2 2 2 2
10 10 8 7 6 6 5 4 3 3 3 3 3 3 3 2 2 3 3 4 4 4 4 4 4 4 4 4 4 4 4 3 3 3 3 2 2 1 1 2 2 2 3
10 10 9 7 6 6 5 4 4 3 3 3 3 2 2 2 3 3 3 3 4 4 4 4 5 5 4 4 4 3 4 3 3 4 4 4 5 4 3 2 2 3 2
10 10 9 8 7 6 5 5 3 3 3 3 2 2 2 3 3 3 3 4 4 4 4 5 5 6 5 7 7 5 4 4 4 4 4 5 6 6 7 6 4 3 3
10 10 9 8 7 6 6 5 4 3 3 3 2 2 3 3 2 2 3 4 3 4 4 4 5 5 6 9 8 8 5 5 4 4 4 5 6 6 5 6 7 6 5
9 9 8 7 6 5 5 4 4 4 3 3 3 3 3 3 3 3 3 3 3 3 3 3 4 4 6 9 9 9 6 5 5 5 5 5 5 6 5 5 5 5 4
8 7 7 7 6 6 5 5 4 4 4 3 3 3 3 3 3 2 2 2 2 3 3 2 3 4 6 8 8 7 5 5 5 5 5 5 5 8 7 6 6 5 4
8 8 7 7 6 5 5 6 4 4 4 3 3 2 2 3 2 2 1 2 2 2 2 3 3 3 4 7 8 7 4 4 4 4 5 6 6 7 7 5 5 4 3
9 8 8 7 6 5 6 6 5 4 3 3 3 2 2 2 2 1 1 1 2 2 2 3 3 3 4 6 8 7 3 3 3 3 3 3 6 6 6 4 3 1 1
8 8 7 6 4 5 6 5 4 3 3 3 3 2 1 1 2 2 2 2 2 2 2 3 3 3 4 4 5 7 6 4 3 2 2 3 5 5 5 3 2 2 2
7 6 7 6 4 5 6 6 4 3 4 3 2 2 2 2 2 2 2 2 2 2 1 1 1 2 3 4 6 7 7 6 3 1 3 4 5 5 3 3 4 2 2
6 6 7 6 5 4 5 5 4 4 4 3 2 2 2 2 2 2 1 1 1 1 1 1 1 1 2 3 3 4 4 5 4 3 4 5 5 4 3 3 3 1 0
5 6 6 6 6 5 5 4 4 5 4 3 2 2 1 1 2 2 1 1 1 2 2 2 2 1 1 3 2 1 2 2 2 2 3 3 3 3 3 3 3 2 2
6 6 6 6 6 5 5 4 4 5 4 3 2 1 1 1 1 1 1 3 1 1 1 3 3 2 3 3 2 3 4 4 3 2 2 2 2 2 2 2 2 2 2
Wind_Direction
130 125 116 112 103 83 67 62 65 54 59 78 92 89 80 68 58 53 49 43 35 34 49 40 12 8 357 320 323 321 125 134 107 87 35 18 35 45 39 29 71 68 68
136 129 117 106 100 95 85 70 60 51 45 60 89 102 105 88 79 52 38 33 33 30 41 37 23 8 0 352 342 5 40 243 140 125 121 11 6 20 24 26 43 39 56
152 141 129 118 109 104 92 84 67 55 44 47 69 73 63 50 41 33 26 20 28 27 24 25 22 6 6 336 323 301 149 220 286 130 146 156 201 327 7 23 38 33 38
149 142 135 127 119 114 100 86 73 57 46 51 72 83 87 83 59 44 31 18 24 24 22 23 19 6 360 343 332 6 334 156 191 310 35 148 167 162 149 358 20 35 35
149 144 139 134 125 117 103 88 75 58 47 51 68 80 77 74 55 44 42 28 16 16 14 17 15 5 2 358 359 356 360 155 177 184 168 82 42 132 152 194 297 26 11
146 138 132 124 111 102 97 88 80 67 57 59 62 74 78 73 64 48 37 26 15 9 6 10 9 6 6 357 351 349 4 21 71 144 166 168 182 187 164 174 171 135 359
145 140 135 127 120 111 104 96 90 76 63 64 63 65 73 75 70 59 47 39 25 10 358 5 1 3 2 2 6 17 17 24 53 81 203 219 227 182 157 146 147 129 50
145 145 141 134 132 124 112 107 103 92 74 70 66 62 63 69 63 56 56 42 26 357 356 4 5 8 11 13 17 25 7 16 19 25 44 17 303 154 150 151 151 140 129
142 141 134 131 132 127 120 115 107 93 80 77 72 63 56 62 59 45 46 34 13 14 13 13 15 13 17 14 22 29 12 16 21 23 41 44 9 54 115 136 152 155 167
133 135 132 132 129 125 119 108 101 98 86 77 75 80 61 63 62 51 39 29 15 21 24 21 21 20 17 13 23 21 17 27 16 28 40 29 28 66 94 119 117 127 151
140 136 131 129 126 117 111 103 96 88 75 71 72 68 55 55 56 48 31 23 18 23 28 24 26 22 16 11 22 21 24 30 28 28 37 24 44 79 87 99 112 112 128
134 131 131 129 121 115 109 104 96 84 80 79 73 67 58 53 48 36 21 23 24 24 28 28 27 24 21 15 21 23 27 35 33 27 33 27 50 53 66 87 96 103 115
134 135 133 129 126 122 115 110 101 98 100 96 88 75 61 54 45 31 25 30 32 28 28 31 28 22 19 17 15 21 31 37 31 29 38 40 59 50 54 76 89 89 90
140 138 136 134 131 130 127 122 118 115 110 95 89 79 64 57 45 33 33 34 35 35 35 35 32 25 21 18 15 24 34 33 28 28 42 47 63 81 85 89 100 103 94
143 144 142 138 135 134 130 123 118 110 109 107 98 91 67 60 48 39 37 38 41 44 41 41 33 23 23 18 19 26 39 38 32 31 39 44 48 60 71 96 114 121 116
149 146 143 141 141 141 133 122 121 121 118 119 116 108 85 69 58 47 45 48 45 42 41 39 37 28 21 19 32 43 47 44 46 39 32 37 42 43 53 63 76 107 134
151 150 149 147 145 142 138 138 138 121 111 111 106 100 96 76 59 57 54 52 47 48 43 36 37 29 16 28 36 42 55 51 49 51 45 43 39 38 47 49 52 56 74
148 147 144 139 136 134 135 134 122 118 116 105 95 97 96 84 62 55 58 52 48 48 44 37 35 32 18 29 40 46 52 51 47 49 55 57 38 36 50 62 56 50 52
141 139 138 135 134 135 134 124 122 121 112 104 92 91 97 98 79 64 58 51 57 45 35 35 38 34 12 22 39 50 49 50 41 41 45 52 47 36 52 67 64 54 37
127 126 125 123 129 134 126 119 122 118 121 121 107 94 95 100 105 93 64 50 60 51 40 36 30 32 18 17 34 49 57 52 38 31 29 37 42 38 47 64 69 58 26
127 126 126 130 139 136 122 121 125 135 147 128 115 108 96 107 113 88 58 58 60 55 40 30 15 19 19 18 29 42 62 63 47 31 15 8 25 34 40 57 75 81 29
126 127 128 131 135 132 126 127 141 152 131 114 105 106 104 104 95 86 66 56 66 61 40 30 12 1 3 19 25 40 52 63 67 27 355 349 5 21 24 37 33 41 43
134 131 134 135 134 139 138 143 162 145 125 110 104 95 79 65 78 90 82 56 52 65 42 44 21 345 347 356 13 30 38 47 54 359 340 345 358 7 9 357 360 27 43
138 137 137 139 146 152 150 158 157 140 128 124 115 99 88 66 52 60 76 88 78 89 91 91 39 339 340 343 350 359 9 16 16 355 344 348 358 6 344 336 345 354 323
144 144 147 152 157 155 155 161 153 140 138 142 142 130 125 116 80 59 54 128 203 198 177 183 179 169 277 284 300 341 343 338 331 345 4 8 2 360 352 348 339 340 357
146 147 149 152 155 155 161 167 160 150 148 152 166 175 168 154 147 130 10 1 307 310 220 201 192 222 235 264 311 334 336 332 343 39 15 343 336 327 317 324 329 332 324